Hagerstown, MD

12:14 AM EST on December 16, 2019 (GMT -0500)
Hagerstown Regional-Henson

Weather History for KHGR - November, 2019

Change the Weather History Date:

Saturday, November 16, 2019

  Actual Average Record
Temperature  
Mean Temperature 36 °F 45 °F  
Max Temperature 43 °F 53 °F 71 °F (2001)
Min Temperature 29 °F 36 °F 21 °F (1996)
Degree Days  
Heating Degree Days 29 20  
Month to date heating degree days 371 280  
Since 1 July heating degree days 590 682  
Cooling Degree Days 0 0  
Month to date cooling degree days 0 0  
Year to date cooling degree days 1473 969  
Moisture  
Dew Point 16 °F    
Average Humidity 44    
Maximum Humidity 70    
Minimum Humidity 18    
Precipitation  
Precipitation 0.00 in 0.10 in 0.62 in (2002)
Month to date precipitation 0.34 1.58  
Year to date precipitation 34.44 34.76  
Sea Level Pressure  
Sea Level Pressure 30.39 in    
Wind  
Wind Speed 9 mph (NNE)    
Max Wind Speed 18 mph    
Max Gust Speed 25 mph    
Visibility 10 miles    
Events      
T = Trace of Precipitation, MM = Missing Value Source: NWS Daily Summary

Daily Weather History Graph

Daily Weather History Graph

Search for Another Location

Airport or City:

Astronomy

Nov. 16, 2019 Rise Set
Actual Time 6:56 AM EST 4:54 PM EST
Civil Twilight 6:27 AM EST 5:23 PM EST
Nautical Twilight 5:54 AM EST 5:56 PM EST
Astronomical Twilight 5:22 AM EST 6:28 PM EST
Moon 8:25 PM EST 10:48 AM EST
Length of Visible Light 10h 56m
Length of Day
9h 58m
Waning Gibbous, 82% of the Moon is Illuminated
Nov 16
Waning Gibbous
Nov 19
Last Quarter
Nov 26
New
Dec 4
First Quarter
Dec 12
Full

Hourly Weather History & Observations

Time (EST) Temp. Windchill Dew Point Humidity Pressure Visibility Wind Dir Wind Speed Gust Speed Precip Events Conditions
12:53 AM 35.1 °F 28.6 °F 25.0 °F 67% 30.32 in 10.0 mi NNW 8.1 mph - N/A   Clear
1:24 AM 35.1 °F 31.0 °F 26.1 °F 70% 30.27 in 10.0 mi North 4.6 mph - N/A   Mostly Cloudy
1:53 AM 36.0 °F 29.6 °F 26.1 °F 67% 30.31 in 10.0 mi North 8.1 mph - N/A   Overcast
2:53 AM 37.0 °F 32.4 °F 27.0 °F 67% 30.30 in 10.0 mi NNW 5.8 mph - N/A   Overcast
3:36 AM 36.0 °F 32.1 °F 26.1 °F 67% 30.27 in 10.0 mi North 4.6 mph - N/A   Mostly Cloudy
3:53 AM 35.1 °F 30.1 °F 26.1 °F 70% 30.31 in 10.0 mi North 5.8 mph - N/A   Mostly Cloudy
4:53 AM 34.0 °F 28.8 °F 24.1 °F 67% 30.34 in 10.0 mi NNE 5.8 mph - N/A   Partly Cloudy
5:53 AM 33.1 °F 26.9 °F 21.9 °F 64% 30.37 in 10.0 mi NNE 6.9 mph - N/A   Clear
6:53 AM 33.1 °F 26.1 °F 21.9 °F 64% 30.41 in 10.0 mi NNE 8.1 mph - N/A   Clear
7:53 AM 35.1 °F 27.4 °F 23.0 °F 61% 30.44 in 10.0 mi North 10.4 mph - N/A   Overcast
8:53 AM 36.0 °F 26.7 °F 21.9 °F 57% 30.45 in 10.0 mi NNE 15.0 mph - N/A   Clear
9:53 AM 37.9 °F 29.2 °F 21.0 °F 51% 30.45 in 10.0 mi North 15.0 mph - N/A   Clear
10:53 AM 39.0 °F 31.4 °F 18.0 °F 43% 30.45 in 10.0 mi NNE 12.7 mph - N/A   Clear
11:53 AM 41.0 °F 34.7 °F 16.0 °F 36% 30.43 in 10.0 mi NNE 10.4 mph - N/A   Clear
12:53 PM 42.1 °F 35.2 °F 12.9 °F 31% 30.40 in 10.0 mi East 12.7 mph - N/A   Clear
1:53 PM 42.1 °F 35.7 °F 10.9 °F 28% 30.39 in 10.0 mi East 11.5 mph 19.6 mph N/A   Clear
2:53 PM 42.1 °F 36.6 °F 6.1 °F 23% 30.39 in 10.0 mi ENE 9.2 mph - N/A   Clear
3:53 PM 41.0 °F 34.7 °F 1.0 °F 19% 30.40 in 10.0 mi East 10.4 mph - N/A   Clear
5:53 PM 35.1 °F 29.3 °F 3.9 °F 27% 30.43 in 10.0 mi NE 6.9 mph - N/A   Clear
6:53 PM 34.0 °F 28.0 °F 3.0 °F 27% 30.44 in 10.0 mi NE 6.9 mph - N/A   Clear
8:53 PM 30.9 °F 25.2 °F 3.9 °F 32% 30.43 in 10.0 mi NNE 5.8 mph - N/A   Clear
9:53 PM 30.0 °F 23.2 °F 5.0 °F 35% 30.43 in 10.0 mi NE 6.9 mph - N/A   Clear
10:53 PM 30.9 °F 25.2 °F 3.9 °F 32% 30.42 in 10.0 mi NE 5.8 mph - N/A   Clear
11:53 PM 30.0 °F 24.1 °F 5.0 °F 35% 30.42 in 10.0 mi NE 5.8 mph - N/A   Partly Cloudy